[[{"header":{"parameterUnit":"m.s-1","parameterCategory":1,"la1":30.2991,"la2":30.254,"lo1":-89.0895,"lo2":-89.0444,"dy":0.0017,"dx":0.0017,"nx":28,"ny":28,"refTime":"2024-03-28T09:00:00:Z","depth":0,"parameterNumber":2,"parameterNumberName":"U-component_of_WINDS"},"data":[0,0,0,0,0,0,0,0,0,0,0,0,0,0,0,0,0,0,0,0,0,0,0,0,0,0,0,0,0,0,0,0,0,0,0,0,0,0,0,0,0,0,0,0,0,0,0,0,0,0,0,0,0,0,0,0,0,0,2.0258,2.0257,0,2.0175,2.0174,2.0173,2.0101,2.0101,2.01,2.0099,2.0012,2.001,2.0009,0,0,0,0,0,0,0,0,0,0,0,0,0,2.0354,2.0353,2.0258,2.0257,2.0256,2.0175,2.0174,2.0173,2.0101,2.01,2.01,2.0099,2.0012,2.001,2.0009,0,0,0,0,0,0,0,0,0,0,0,0,0,2.0296,2.0353,2.0258,2.0211,2.0206,2.0175,2.0174,2.0172,2.0102,2.01,2.0099,2.0098,2.0013,2.0011,2.0008,2.0018,0,0,2.0001,2.0,0,0,0,0,0,0,0,0,2.03,2.0293,2.0219,2.0214,2.0208,2.0147,2.0176,2.0121,2.0102,2.0141,2.0099,2.0098,2.0058,2.0052,2.0039,2.0014,2.001,2.0001,1.9999,1.9998,1.9998,0,0,0,0,0,0,0,2.0304,2.0296,2.0225,2.0218,2.0211,2.0193,2.0184,2.0165,2.0107,2.0138,2.0132,2.0123,2.0055,2.0041,2.0036,2.0009,2.0001,1.9999,1.9997,1.9996,1.9989,1.999,0,0,0,0,0,0,2.0315,2.03,2.0228,2.0223,2.0252,2.0193,2.0182,2.0168,2.0107,2.0097,2.0125,2.012,2.0046,2.0039,2.0033,2.004,1.9998,1.9996,1.9995,1.9987,1.9989,1.999,0,0,0,0,0,0,2.0318,2.0309,2.0231,2.026,2.0248,2.0192,2.0177,2.0167,2.0153,2.0097,2.0086,2.0121,2.0044,2.0036,2.0022,2.0036,1.9995,1.9993,1.9986,1.9988,1.9989,2.0055,0,0,0,0,0,0,2.0321,2.0311,2.0314,2.026,2.0247,2.0222,2.0178,2.0166,2.015,2.0143,2.0091,2.0082,2.0043,2.0026,2.002,2.0032,1.9991,1.9984,1.9987,1.9989,2.0051,2.0059,2.0065,0,0,0,0,0,2.0324,2.0335,2.0314,2.0306,2.025,2.0223,2.0216,2.0171,2.0151,2.0154,2.0118,2.0083,2.0036,2.0026,2.0018,2.0029,1.9983,1.9986,1.9989,2.0048,2.0057,2.0065,0,0,0,0,0,0,2.039,2.0327,2.0303,2.0297,2.0266,2.0211,2.0213,2.0182,2.0156,2.0151,2.0097,2.0086,2.0079,2.0053,2.0042,2.0036,2.0005,2.0006,2.0053,2.0061,2.0068,2.0074,1.9989,0,0,0,0,0,2.0404,2.0388,2.0334,2.0333,2.0319,2.0269,2.0256,2.0225,2.0191,2.0177,2.014,2.0108,2.0086,2.0072,2.0049,2.0048,2.0035,2.0052,2.0059,2.0065,2.0066,2.0065,2.0071,1.9999,1.9999,1.9999,0,0,2.0432,2.0395,2.0389,2.0346,2.0318,2.0303,2.0258,2.0244,2.0232,2.0174,2.0159,2.0132,2.0092,2.0086,2.0081,2.0064,2.0084,2.0068,2.0074,2.0071,2.0068,2.0075,2.0081,2.0001,2.0001,2.0,0,0,2.0475,2.0446,2.0443,2.0417,2.0377,2.0344,2.0343,2.0293,2.0273,2.0258,2.0215,2.02,2.0163,2.0137,2.0118,2.0155,2.0122,2.0149,2.0184,2.0184,2.0189,2.0194,2.0207,2.0212,2.0151,2.0151,2.0151,0,2.0515,2.049,2.0445,2.0433,2.0416,2.0365,2.0361,2.0338,2.0292,2.0281,2.0263,2.0217,2.0186,2.0173,2.0183,2.017,2.0167,2.0154,2.0192,2.0197,2.02,2.0212,2.0217,2.0154,2.0154,2.0154,2.0153,0,2.0541,2.0525,2.0528,2.0486,2.0469,2.0461,2.0415,2.0403,2.0374,2.0344,2.0329,2.0291,2.026,2.0255,2.0226,2.0238,2.0229,2.0203,2.017,2.0212,2.0222,2.0226,2.0159,2.0158,2.0157,2.0156,0,0,2.0621,2.0556,2.0557,2.0538,2.0491,2.0478,2.0469,2.0439,2.043,2.0401,2.0392,2.0363,2.0339,2.0319,2.0287,2.0286,2.0318,2.026,2.0258,2.0272,2.0329,2.0348,2.0354,2.0297,2.0297,2.0298,2.0332,0,2.0656,2.0637,2.0597,2.059,2.0575,2.0528,2.052,2.049,2.0462,2.0445,2.0413,2.0394,2.0364,2.0351,2.0349,2.0315,2.0329,2.0312,2.0287,2.0287,2.0298,2.036,2.0379,2.0413,2.0336,2.0337,2.0337,0,2.0693,2.0668,2.0661,2.0616,2.0608,2.0602,2.0572,2.0557,2.0523,2.0502,2.0481,2.0447,2.0435,2.0407,2.039,2.0379,2.0367,2.0349,2.035,2.0344,2.0314,2.0355,2.0423,2.0428,2.0343,2.0342,2.0342,0,2.0752,2.0716,2.0707,2.0693,2.064,2.0637,2.0615,2.058,2.0565,2.054,2.053,2.0503,2.0488,2.0468,2.0427,2.0411,2.0415,2.0383,2.0397,2.0398,2.0399,2.0399,2.0465,2.0393,2.0393,2.0393,2.0393,0,2.0794,2.0791,2.0733,2.0727,2.0723,2.0678,2.0675,2.0648,2.0618,2.0607,2.0564,2.0554,2.0502,2.0486,2.0455,2.0446,2.0439,2.0422,2.0413,2.0425,2.0427,2.0415,2.0412,2.0394,2.0394,2.0394,2.0394,0,2.0858,2.0819,2.0806,2.0759,2.0747,2.0746,2.0705,2.0698,2.0668,2.0654,2.0648,2.0601,2.0581,2.0539,2.0506,2.0485,2.0483,2.0469,2.0495,2.049,2.0506,2.0505,2.0565,2.0571,2.0497,2.0498,2.0499,0,2.0887,2.0884,2.0837,2.0827,2.0807,2.0791,2.0776,2.0732,2.0718,2.0681,2.0679,2.0655,2.0633,2.0603,2.0566,2.0541,2.0525,2.0548,2.0521,2.0533,2.0525,2.0525,2.0524,2.0554,2.0555,2.0555,2.0556,0,2.0943,2.0924,2.0905,2.088,2.0864,2.0841,2.0816,2.081,2.0761,2.0748,2.0727,2.0711,2.0679,2.0656,2.0626,2.0603,2.0571,2.0566,2.0567,2.0579,2.0594,2.0586,2.0511,2.0564,2.0563,2.0562,2.0562,2.0562,2.0989,2.0985,2.0952,2.0932,2.0909,2.0888,2.0879,2.0849,2.0831,2.0802,2.0778,2.0759,2.0727,2.0684,2.0663,2.0648,2.0632,2.0635,2.0636,2.0637,2.0642,2.0598,2.0643,2.0642,2.0642,2.0642,2.0642,0,2.1042,2.1019,2.1002,2.097,2.0955,2.0928,2.09,2.0889,2.0873,2.0846,2.0827,2.0803,2.0782,2.0744,2.0719,2.0714,2.0699,2.0709,2.0708,2.0704,2.0657,2.0658,2.0722,2.0722,2.0722,2.0722,2.0722,2.0722,2.1068,2.1059,2.1037,2.1017,2.0994,2.0976,2.0962,2.0943,2.0921,2.0897,2.0879,2.0855,2.0824,2.0797,2.0776,2.0765,2.0758,2.0772,2.0757,2.0714,2.0707,2.07,2.07,2.0771,2.0771,2.0805,2.0805,2.0805]},{"header":{"parameterUnit":"m.s-1","parameterCategory":1,"la1":30.2991,"la2":30.254,"lo1":-89.0895,"lo2":-89.0444,"dy":0.0017,"dx":0.0017,"nx":28,"ny":28,"refTime":"2024-03-28T09:00:00:Z","depth":0,"parameterNumber":3,"parameterNumberName":"V-component_of_WINDS"},"data":[0,0,0,0,0,0,0,0,0,0,0,0,0,0,0,0,0,0,0,0,0,0,0,0,0,0,0,0,0,0,0,0,0,0,0,0,0,0,0,0,0,0,0,0,0,0,0,0,0,0,0,0,0,0,0,0,0,0,-5.8885,-5.8887,0,-5.9076,-5.9078,-5.9081,-5.904,-5.9036,-5.9033,-5.9029,-5.9222,-5.923,-5.9239,0,0,0,0,0,0,0,0,0,0,0,0,0,-5.8481,-5.8489,-5.8885,-5.8887,-5.8889,-5.9076,-5.9079,-5.9081,-5.904,-5.9036,-5.9032,-5.9028,-5.9219,-5.9229,-5.9239,0,0,0,0,0,0,0,0,0,0,0,0,0,-5.8663,-5.8491,-5.8884,-5.8892,-5.8894,-5.9075,-5.9079,-5.9082,-5.9041,-5.9036,-5.9031,-5.9026,-5.9216,-5.9228,-5.9241,-5.9426,0,0,-5.928,-5.9285,0,0,0,0,0,0,0,0,-5.8653,-5.8678,-5.8888,-5.8891,-5.8895,-5.9029,-5.9007,-5.9197,-5.9043,-5.8985,-5.9029,-5.9023,-5.9162,-5.9179,-5.9226,-5.9435,-5.9443,-5.9281,-5.9288,-5.9294,-5.9297,0,0,0,0,0,0,0,-5.864,-5.8669,-5.896,-5.8891,-5.8895,-5.8885,-5.8905,-5.9043,-5.9101,-5.899,-5.8987,-5.9011,-5.9163,-5.9214,-5.923,-5.9446,-5.928,-5.9292,-5.9299,-5.9304,-5.9816,-5.9822,0,0,0,0,0,0,-5.8625,-5.8659,-5.8954,-5.8966,-5.8758,-5.8896,-5.8918,-5.8991,-5.9099,-5.9111,-5.9015,-5.9008,-5.9195,-5.9216,-5.9237,-5.9461,-5.9294,-5.9306,-5.9313,-5.981,-5.9818,-5.9824,0,0,0,0,0,0,-5.8616,-5.8652,-5.8946,-5.8812,-5.8849,-5.8909,-5.8991,-5.8998,-5.9049,-5.9119,-5.9128,-5.9057,-5.9192,-5.9219,-5.938,-5.9467,-5.9311,-5.9323,-5.9803,-5.9813,-5.9821,-5.9911,0,0,0,0,0,0,-5.8605,-5.8649,-5.872,-5.8814,-5.8856,-5.9087,-5.8996,-5.9005,-5.9071,-5.9064,-5.9161,-5.9172,-5.919,-5.9361,-5.9392,-5.9482,-5.9333,-5.9796,-5.9807,-5.9818,-5.9901,-5.9922,-5.9941,0,0,0,0,0,-5.8591,-5.8737,-5.8724,-5.876,-5.8947,-5.9092,-5.9116,-5.9135,-5.9079,-5.9151,-5.9195,-5.9168,-5.9453,-5.9378,-5.9412,-5.9508,-5.979,-5.9804,-5.9817,-5.9892,-5.9918,-5.994,0,0,0,0,0,0,-5.8651,-5.875,-5.8736,-5.8917,-5.8997,-5.9085,-5.9176,-5.9162,-5.9258,-5.9247,-5.9265,-5.9287,-5.9451,-5.9495,-5.941,-5.9692,-5.9613,-5.9634,-5.9658,-5.9683,-5.9703,-5.9689,-5.9343,0,0,0,0,0,-5.8686,-5.8796,-5.8876,-5.9028,-5.9069,-5.9116,-5.918,-5.9188,-5.927,-5.9303,-5.9359,-5.944,-5.9547,-5.9617,-5.972,-5.9906,-5.9927,-5.9989,-6.0009,-6.0025,-6.0043,-6.0146,-6.0174,-5.9868,-5.9868,-5.9868,0,0,-5.8758,-5.8825,-5.8894,-5.9042,-5.9104,-5.9218,-5.9144,-5.9267,-5.9352,-5.9321,-5.9477,-5.9521,-5.9612,-5.9786,-5.9866,-5.9828,-6.0132,-6.0042,-6.0054,-6.0064,-6.0163,-6.0192,-6.0217,-5.9878,-5.9876,-5.9874,0,0,-5.8948,-5.901,-5.9144,-5.9208,-5.9304,-5.9335,-5.9367,-5.9458,-5.9487,-5.9643,-5.9623,-5.9723,-5.9908,-5.9974,-6.0031,-6.0247,-6.0226,-6.028,-6.0384,-6.0484,-6.0508,-6.053,-6.0607,-6.0635,-6.0297,-6.0298,-6.0298,0,-5.9025,-5.9197,-5.9214,-5.9341,-5.9406,-5.9385,-5.9521,-5.9582,-5.9706,-5.9752,-5.9708,-5.994,-6.0,-6.019,-6.0242,-6.0289,-6.0327,-6.0269,-6.0503,-6.0525,-6.0545,-6.062,-6.0649,-6.0304,-6.0303,-6.0302,-6.0302,0,-5.9287,-5.9407,-5.9503,-5.9626,-5.9702,-5.9832,-5.9869,-5.9944,-5.9946,-5.9981,-6.014,-6.0211,-6.0328,-6.0373,-6.0375,-6.0564,-6.0538,-6.0499,-6.042,-6.058,-6.0651,-6.0679,-6.0312,-6.031,-6.0308,-6.0307,0,0,-5.9521,-5.9652,-5.9687,-5.9743,-5.9847,-5.994,-6.0068,-6.0184,-6.0249,-6.0335,-6.0444,-6.0601,-6.0566,-6.0631,-6.064,-6.0727,-6.0895,-6.0677,-6.068,-6.0716,-6.1109,-6.1138,-6.1171,-6.0881,-6.0887,-6.0891,-6.1101,0,-5.9721,-5.995,-5.997,-6.0176,-6.0286,-6.0268,-6.038,-6.0456,-6.0493,-6.0591,-6.063,-6.0742,-6.0686,-6.0726,-6.0812,-6.0856,-6.0974,-6.0841,-6.0982,-6.0987,-6.0962,-6.1208,-6.1239,-6.1434,-6.1129,-6.1133,-6.1137,0,-5.9985,-6.0081,-6.0298,-6.0388,-6.0435,-6.0536,-6.0645,-6.0739,-6.0825,-6.0845,-6.0919,-6.0916,-6.1048,-6.0964,-6.1146,-6.1056,-6.1114,-6.1145,-6.1153,-6.1167,-6.1072,-6.1229,-6.1497,-6.1526,-6.118,-6.1176,-6.1173,0,-6.0135,-6.0318,-6.0472,-6.052,-6.0628,-6.07,-6.0748,-6.0829,-6.0898,-6.0992,-6.1036,-6.1144,-6.1203,-6.1286,-6.1313,-6.1249,-6.1495,-6.1412,-6.1515,-6.1515,-6.1568,-6.1565,-6.1849,-6.1605,-6.1604,-6.1604,-6.1603,0,-6.0357,-6.0491,-6.0541,-6.0636,-6.0785,-6.0806,-6.0953,-6.0997,-6.1069,-6.1172,-6.1162,-6.1258,-6.1286,-6.1388,-6.1409,-6.1557,-6.1583,-6.1603,-6.1607,-6.1605,-6.1603,-6.1644,-6.1632,-6.1611,-6.161,-6.1608,-6.1607,0,-6.055,-6.0589,-6.0755,-6.0845,-6.0871,-6.0977,-6.1053,-6.1144,-6.1179,-6.1309,-6.134,-6.1394,-6.1513,-6.1548,-6.1689,-6.1703,-6.1878,-6.1869,-6.185,-6.185,-6.1952,-6.1942,-6.2274,-6.2319,-6.2044,-6.2046,-6.2048,0,-6.0689,-6.0792,-6.0893,-6.0962,-6.1014,-6.1124,-6.1195,-6.122,-6.1293,-6.1399,-6.1478,-6.1595,-6.169,-6.1881,-6.1932,-6.2041,-6.2035,-6.2144,-6.2051,-6.2046,-6.2038,-6.2032,-6.2043,-6.2162,-6.2164,-6.2167,-6.2169,0,-6.0934,-6.0948,-6.105,-6.1161,-6.1245,-6.1332,-6.1416,-6.1473,-6.1509,-6.1593,-6.1715,-6.1789,-6.1935,-6.2052,-6.2162,-6.2211,-6.2197,-6.2197,-6.2227,-6.2226,-6.2211,-6.2222,-6.1899,-6.219,-6.2188,-6.2186,-6.2185,-6.2184,-6.1105,-6.1196,-6.1282,-6.1396,-6.1462,-6.1541,-6.1632,-6.1678,-6.1781,-6.1902,-6.191,-6.2043,-6.2126,-6.2273,-6.2328,-6.2431,-6.2399,-6.2442,-6.2453,-6.2463,-6.2473,-6.2194,-6.2451,-6.245,-6.245,-6.245,-6.2449,0,-6.1349,-6.1404,-6.1509,-6.1628,-6.1718,-6.1698,-6.1789,-6.1866,-6.1983,-6.2063,-6.2157,-6.2298,-6.2411,-6.2472,-6.2585,-6.2656,-6.2653,-6.2685,-6.2681,-6.2692,-6.2494,-6.2458,-6.2686,-6.2686,-6.2686,-6.2686,-6.2686,-6.2686,-6.1487,-6.164,-6.1665,-6.1851,-6.1904,-6.2035,-6.2089,-6.2162,-6.2226,-6.2384,-6.2478,-6.2517,-6.259,-6.2708,-6.2811,-6.2826,-6.2868,-6.2905,-6.2916,-6.273,-6.2706,-6.2683,-6.2649,-6.2914,-6.2914,-6.3106,-6.3107,-6.3109]}]]